Current weather by "City, St" or "zip code"  
 

Current Conditions: Stillwater, Stillwater Regional Airport, OK

Fair


42.0 F

Last Updated on Oct 24 2020, 8:53 pm CDT
Humidity: 73%
Wind Speed: NE 8.1 mph
Barometer 30.03 in
Dewpoint: 34.0 F
Visibility: 10.00 mi
Precip: --
Heat Index: NA
Wind Chill: 37 F
Current conditions at:

Stillwater, Stillwater Regional Airport, OK (KSWO)

Lat: 36.16222 Lon: 97.08917

Local Radar Image active severe weather and emergency alerts image image weather storm and storm spotter reports image weather observation monitoring service image
Local
Radar
Active
Alerts
Storm Reports Obs
Monitoring

Sign-up For Email & Text Message Weather Alert Notification Services



Advertise Here

Observation History for Stillwater, Stillwater Regional Airport, OK


Time Wind
(mph)
Vis
(mi)
Weather Precip (in) Temperature (F) Relative
Humidity
Wind
Chill
(F)
Heat
Index
(F)
Pressure
Air Dwpt altimeter
(in)
sea level
(mb)
Rmks
8:53 pm CDT NE 8.1 10.00 Fair -- 42.0 34.0 73% 37 NA 30.03 1017.2
7:53 pm CDT NE 9.2 10.00 Fair -- 44.0 34.0 68% 39 NA 30.02 1016.6
6:53 pm CDT NE 9.2 10.00 Fair -- 47.0 34.0 61% 43 NA 30.00 1015.9
5:53 pm CDT E 9.2 10.00 Fair -- 51.0 34.0 52% 48 NA 29.98 1015.3
4:53 pm CDT E 8.1 10.00 Fair -- 53.0 33.1 47% 50 NA 30.00 1015.8
3:53 pm CDT E 8.1 10.00 Fair -- 53.0 33.1 47% 50 NA 30.01 1016.1
2:53 pm CDT N 0.0 10.00 Fair -- 51.0 33.1 50% NA NA 30.05 1017.4
1:53 pm CDT E 6.9 10.00 Mostly Cloudy -- 51.0 33.1 50% 48 NA 30.08 1018.7
12:53 pm CDT NE 3.5 10.00 Mostly Cloudy -- 47.0 32.0 56% NA NA 30.14 1020.6
11:53 am CDT NE 3.5 10.00 Overcast -- 45.0 32.0 61% NA NA 30.17 1021.8
10:53 am CDT NE 6.9 10.00 Overcast -- 44.0 32.0 63% 40 NA 30.20 1022.8
9:53 am CDT NE 8.1 10.00 Overcast -- 42.0 30.9 65% 37 NA 30.22 1023.3
8:53 am CDT N 6.9 10.00 Overcast -- 42.0 30.9 65% 38 NA 30.21 1023.2
7:53 am CDT N 6.9 10.00 Overcast -- 41.0 30.9 67% 36 NA 30.22 1023.3
6:53 am CDT NE 8.1 10.00 Overcast -- 41.0 30.9 67% 36 NA 30.23 1023.7
5:53 am CDT NE 6.9 10.00 Overcast -- 41.0 30.9 67% 36 NA 30.24 1024.1
4:53 am CDT NE 10.4 10.00 Overcast -- 42.0 30.0 62% 36 NA 30.25 1024.6
3:53 am CDT NE 9.2 10.00 Overcast -- 42.0 30.9 65% 36 NA 30.27 1025.2
2:53 am CDT NE 11.5 10.00 Overcast -- 42.0 30.9 65% 36 NA 30.29 1025.6
1:53 am CDT NE 9.2 10.00 Overcast -- 43.0 30.9 63% 38 NA 30.30 1026.2
12:53 am CDT NE 11.5 10.00 Overcast -- 43.0 30.9 63% 37 NA 30.32 1026.9
11:53 pm CDT N 15.0 10.00 Overcast -- 43.0 32.0 65% 36 NA 30.33 1027.2
10:53 pm CDT NE 16.1 10.00 Overcast -- 44.0 30.9 60% 37 NA 30.32 1027.0
9:53 pm CDT NE 16.1 10.00 Overcast -- 45.0 30.9 58% 38 NA 30.32 1026.9

Regional Weather Observation


Ponca City, Ponca City Municipal Airport, OK (KPNC)

Fair
40.0 F

Blackwell-Tonkawa Municipal Airport, OK (KBKN)

Fair
39.0 F

Enid, Enid Woodring Regional Airport, OK (KWDG)

Clear
43.0 F

Vance Air Force Base / Enid, OK (KEND)

Fair
42.0 F

Guthrie, Guthrie Municipal Airport, OK (KGOK)

Fair
43.0 F

Cushing, Cushing Municipal Airport, OK (KCUH)

Fair
42.0 F